Regional Weather Roundup
Issued by NWS

Home | Current Version | Previous Version | Text Only | Print | Product List | Glossary Off
Versions: 1 2 3 4 5 6 7 8 9 10 11 12 13 14 15 16 17 18 19 20 21 22 23 24 25 26 27 28 29 30 31 32 33 34 35 36 37 38 39 40 41 42 43 44 45 46 47 48 49 50

000
ASUS43 KOAX 241802
RWRNE

WEATHER ROUNDUP FOR NEBRASKA
NATIONAL WEATHER SERVICE OMAHA NE
100 PM CDT FRI OCT 24 2014

NOTES: SATELLITE DATA IS BEING USED TO AUGMENT CLOUD COVER ABOVE
       12000 FEET.
       "FAIR" INDICATES FEW OR NO CLOUDS BELOW 12,000 FEET WITH NO
       SIGNIFICANT WEATHER AND/OR OBSTRUCTIONS TO VISIBILITY.

  * THESE STATIONS DO NOT REPORT WEATHER SUCH AS RAIN...SNOW OR FOG.

NEZ001>004-019>022-054>056-241900-
NEBRASKA PANHANDLE

CITY           SKY/WX    TMP DP  RH WIND       PRES   REMARKS
SCOTTSBLUFF    MOSUNNY   76  32  20 W20       30.08F
6HR MIN TEMP:  47; 6HR MAX TEMP:  76;

ALLIANCE       SUNNY     76  37  24 W15       30.06F
6HR MIN TEMP:  44; 6HR MAX TEMP:  76;

CHADRON        MOSUNNY   73  36  25 W13       30.03F
6HR MIN TEMP:  42; 6HR MAX TEMP:  73;

KIMBALL        PTSUNNY   77  27  15 W23G30    30.12F
SIDNEY         CLOUDY    76  35  22 NW14G25   30.12S
6HR MIN TEMP:  47; 6HR MAX TEMP:  76;

$$

NEZ057>060-069>072-079>082-241900-
SOUTHWEST NEBRASKA

CITY           SKY/WX    TMP DP  RH WIND       PRES   REMARKS
NORTH PLATTE   MOSUNNY   73  42  32 W9        30.02F
6HR MIN TEMP:  40; 6HR MAX TEMP:  73;

IMPERIAL       PTSUNNY   78  36  21 NW5       30.06F
6HR MIN TEMP:  46; 6HR MAX TEMP:  78;

LEXINGTON      PTSUNNY   73  43  34 W10       30.00F
MCCOOK         MOSUNNY   75  42  30 W6        30.03F
6HR MIN TEMP:  48; 6HR MAX TEMP:  75;

OGALLALA       PTSUNNY   76  42  29 W8        30.06F
$$

NEZ005>010-023>029-035>040-094-241900-
NORTH CENTRAL NEBRASKA

CITY           SKY/WX    TMP DP  RH WIND       PRES   REMARKS
VALENTINE      MOSUNNY   72  37  28 NW6       29.98S
6HR MIN TEMP:  40; 6HR MAX TEMP:  72;

AINSWORTH      PTSUNNY   71  36  27 NW5       29.98S
BROKEN BOW     PTSUNNY   77  41  27 NW15      29.98S
6HR MIN TEMP:  49; 6HR MAX TEMP:  78;

O`NEILL        CLOUDY    68  44  41 N6        29.97S
ORD            PTSUNNY   68  45  43 NW7       29.96S
6HR MIN TEMP:  43; 6HR MAX TEMP:  68;

THEDFORD       MOSUNNY   78  38  24 W5        30.00F
$$

NEZ041-046>049-061>064-073>077-083>087-241900-
SOUTH CENTRAL NEBRASKA

CITY           SKY/WX    TMP DP  RH WIND       PRES   REMARKS
GRAND ISLAND   CLOUDY    66  53  63 W6        29.96F
6HR MIN TEMP:  56; 6HR MAX TEMP:  66;

AURORA         CLOUDY    67  50  54 W6        29.96F
HASTINGS       CLOUDY    67  51  56 W9        29.97F
6HR MIN TEMP:  55; 6HR MAX TEMP:  67;

HEBRON         CLOUDY    70  58  66 SW7       29.96F
HOLDREGE       PTSUNNY   77  44  31 NW10      29.99F
KEARNEY *      CLOUDY    72  45  37 W9        29.99S
YORK           CLOUDY    66  55  68 W7        29.95F
$$

NEZ011>018-030>034-042>045-241900-
NORTHEAST NEBRASKA

CITY           SKY/WX    TMP DP  RH WIND       PRES   REMARKS
NORFOLK        CLOUDY    69  50  50 NW3       29.94R
6HR MIN TEMP:  53; 6HR MAX TEMP:  69;

ALBION         CLOUDY    65  50  57 CALM      29.95S
BLAIR          CLOUDY    70  58  66 SW9       29.93S
COLUMBUS *     CLOUDY    66  54  63 W5        29.96S
FREMONT        CLOUDY    71  55  58 W3        29.93F
TEKAMAH        CLOUDY    70  57  63 SW6       29.92S
6HR MIN TEMP:  59; 6HR MAX TEMP:  70;

WAYNE          CLOUDY    69  47  45 NW3       29.93S
$$

NEZ050>053-065>068-078-088>093-241900-
SOUTHEAST NEBRASKA

CITY           SKY/WX    TMP DP  RH WIND       PRES   REMARKS
LINCOLN        CLOUDY    71  57  61 SW9       29.95F
6HR MIN TEMP:  59; 6HR MAX TEMP:  71;

OMAHA EPPLEY   CLOUDY    71  59  65 SW7       29.92F
6HR MIN TEMP:  58; 6HR MAX TEMP:  71;

BEATRICE       CLOUDY    68  61  79 SW10      29.95F
FALLS CITY     CLOUDY    72  62  71 SW13      29.95F
6HR MIN TEMP:  57; 6HR MAX TEMP:  72;

NEBRASKA CITY  CLOUDY    69  62  79 SW9       29.95F
PLATTSMOUTH    PTSUNNY   69  60  72 S9        29.94S
$$

NEZ044-045-051>053-067-241900-
OMAHA AREA

CITY           SKY/WX    TMP DP  RH WIND       PRES   REMARKS
OMAHA EPPLEY   CLOUDY    71  59  65 SW7       29.92F
6HR MIN TEMP:  58; 6HR MAX TEMP:  71;

BLAIR          CLOUDY    70  58  66 SW9       29.93S
FREMONT        CLOUDY    71  55  58 W3        29.93F
OFFUTT AFB     CLOUDY    71  66  85 VRB7      29.92F
PLATTSMOUTH    PTSUNNY   69  60  72 S9        29.94S
WAHOO          FAIR      70  55  58 W5        29.93F
$$



USA.gov is the U.S. government's official web portal to all federal, state and local government web resources and services.